Precipitable_Water
0.60 0.59 0.56 0.54 0.51 0.51 0.51 0.49 0.49 0.49 0.49 0.48 0.47 0.47 0.48 0.49 0.49 0.50 0.52 0.51 0.51 0.51 0.51 0.50 0.50 0.49 0.47 0.47 0.45 0.43 0.41 0.33 0.25 0.23 0.23 0.27 0.34 0.38 0.38 0.41 0.41 0.38 0.34 0.25 0.20 0.19 0.20 0.21 0.21 0.24 0.21 0.19 0.18 0.18 0.21 0.21 0.22 0.22 0.17 0.16 0.14 0.16 0.15 0.19 0.22 0.20 0.21 0.20 0.21 0.23 0.22 0.23 0.21 0.26 0.30 0.31 0.31 0.33 0.39 0.38 0.45 0.48 0.57 0.58 0.66 0.68 0.67 0.62
0.61 0.58 0.57 0.55 0.51 0.51 0.51 0.48 0.48 0.48 0.49 0.48 0.47 0.47 0.48 0.49 0.49 0.50 0.50 0.50 0.50 0.50 0.50 0.49 0.48 0.48 0.47 0.45 0.44 0.43 0.38 0.30 0.24 0.24 0.22 0.36 0.45 0.41 0.38 0.39 0.37 0.35 0.32 0.22 0.18 0.18 0.19 0.19 0.20 0.21 0.19 0.15 0.19 0.16 0.21 0.20 0.22 0.19 0.17 0.16 0.14 0.16 0.19 0.23 0.25 0.22 0.21 0.22 0.22 0.22 0.22 0.21 0.22 0.22 0.27 0.26 0.27 0.29 0.35 0.37 0.40 0.47 0.56 0.62 0.64 0.66 0.61 0.59
0.61 0.59 0.56 0.55 0.52 0.50 0.49 0.48 0.47 0.48 0.49 0.49 0.48 0.47 0.47 0.48 0.49 0.49 0.49 0.49 0.49 0.49 0.49 0.48 0.48 0.47 0.46 0.44 0.42 0.42 0.37 0.26 0.27 0.19 0.21 0.33 0.45 0.43 0.40 0.36 0.34 0.32 0.26 0.21 0.18 0.18 0.20 0.21 0.22 0.19 0.18 0.15 0.17 0.15 0.16 0.19 0.20 0.19 0.17 0.14 0.14 0.17 0.21 0.23 0.23 0.22 0.23 0.23 0.21 0.22 0.22 0.21 0.24 0.22 0.24 0.25 0.26 0.26 0.32 0.33 0.36 0.40 0.47 0.54 0.60 0.62 0.55 0.53
0.60 0.59 0.56 0.54 0.51 0.49 0.49 0.49 0.49 0.48 0.48 0.48 0.48 0.48 0.47 0.46 0.48 0.49 0.49 0.49 0.48 0.48 0.47 0.47 0.46 0.45 0.44 0.42 0.42 0.40 0.36 0.27 0.27 0.32 0.38 0.41 0.41 0.38 0.37 0.34 0.31 0.28 0.23 0.19 0.19 0.20 0.23 0.24 0.25 0.22 0.17 0.16 0.17 0.19 0.17 0.19 0.16 0.19 0.16 0.14 0.14 0.18 0.19 0.21 0.23 0.24 0.24 0.24 0.21 0.20 0.22 0.21 0.22 0.23 0.22 0.23 0.23 0.24 0.29 0.32 0.29 0.34 0.40 0.47 0.53 0.51 0.49 0.46
0.61 0.58 0.56 0.54 0.53 0.48 0.47 0.47 0.48 0.48 0.48 0.48 0.48 0.48 0.47 0.46 0.45 0.47 0.47 0.47 0.47 0.46 0.45 0.46 0.45 0.43 0.41 0.41 0.40 0.40 0.36 0.35 0.26 0.37 0.38 0.40 0.35 0.32 0.30 0.28 0.25 0.20 0.17 0.18 0.20 0.24 0.26 0.25 0.24 0.22 0.17 0.16 0.18 0.19 0.19 0.20 0.20 0.21 0.19 0.16 0.18 0.20 0.20 0.23 0.24 0.23 0.23 0.25 0.22 0.22 0.19 0.19 0.21 0.22 0.21 0.21 0.19 0.22 0.25 0.36 0.34 0.36 0.44 0.47 0.46 0.46 0.45 0.47
0.59 0.58 0.57 0.54 0.52 0.50 0.47 0.46 0.47 0.48 0.48 0.48 0.46 0.46 0.45 0.46 0.45 0.45 0.45 0.46 0.45 0.45 0.44 0.43 0.42 0.40 0.40 0.39 0.40 0.43 0.36 0.15 0.27 0.31 0.34 0.31 0.31 0.29 0.24 0.22 0.21 0.22 0.21 0.20 0.23 0.25 0.25 0.23 0.21 0.18 0.16 0.16 0.17 0.17 0.20 0.20 0.21 0.18 0.19 0.17 0.19 0.20 0.20 0.22 0.22 0.23 0.25 0.24 0.23 0.21 0.22 0.21 0.20 0.22 0.22 0.22 0.21 0.27 0.31 0.33 0.43 0.46 0.52 0.54 0.50 0.47 0.45 0.44
0.60 0.58 0.56 0.53 0.52 0.50 0.49 0.46 0.46 0.48 0.48 0.47 0.46 0.46 0.45 0.44 0.45 0.44 0.44 0.45 0.45 0.45 0.44 0.42 0.42 0.42 0.39 0.40 0.47 0.42 0.36 0.36 0.41 0.31 0.31 0.30 0.27 0.25 0.24 0.24 0.23 0.20 0.20 0.22 0.24 0.23 0.23 0.22 0.21 0.18 0.18 0.18 0.19 0.19 0.21 0.20 0.22 0.19 0.16 0.19 0.20 0.20 0.19 0.22 0.23 0.25 0.25 0.24 0.23 0.23 0.23 0.19 0.20 0.19 0.23 0.22 0.25 0.35 0.39 0.41 0.48 0.51 0.55 0.53 0.47 0.46 0.44 0.46
0.58 0.57 0.56 0.54 0.52 0.50 0.49 0.47 0.46 0.47 0.47 0.46 0.45 0.45 0.46 0.45 0.45 0.46 0.45 0.44 0.44 0.44 0.44 0.42 0.42 0.42 0.43 0.38 0.36 0.38 0.40 0.36 0.43 0.38 0.34 0.31 0.27 0.25 0.25 0.25 0.22 0.20 0.18 0.22 0.24 0.24 0.24 0.22 0.21 0.23 0.22 0.20 0.22 0.22 0.23 0.20 0.20 0.18 0.16 0.19 0.21 0.22 0.22 0.22 0.22 0.23 0.25 0.24 0.24 0.24 0.22 0.23 0.21 0.21 0.22 0.22 0.24 0.31 0.36 0.45 0.48 0.51 0.51 0.49 0.47 0.46 0.47 0.48
0.57 0.57 0.56 0.54 0.52 0.51 0.50 0.50 0.48 0.47 0.47 0.46 0.46 0.45 0.45 0.45 0.45 0.46 0.46 0.45 0.44 0.44 0.44 0.43 0.40 0.43 0.49 0.42 0.34 0.32 0.30 0.46 0.47 0.40 0.36 0.28 0.24 0.27 0.25 0.21 0.24 0.24 0.27 0.30 0.30 0.28 0.27 0.23 0.23 0.24 0.21 0.22 0.23 0.22 0.23 0.22 0.19 0.18 0.18 0.20 0.21 0.21 0.21 0.22 0.22 0.22 0.22 0.23 0.22 0.20 0.21 0.23 0.24 0.23 0.20 0.21 0.23 0.28 0.39 0.37 0.44 0.48 0.49 0.49 0.49 0.50 0.50 0.52
0.56 0.56 0.55 0.54 0.54 0.54 0.55 0.55 0.53 0.51 0.49 0.47 0.46 0.45 0.44 0.44 0.43 0.43 0.45 0.46 0.46 0.45 0.45 0.43 0.43 0.43 0.41 0.40 0.39 0.30 0.30 0.45 0.40 0.39 0.36 0.25 0.26 0.27 0.25 0.26 0.31 0.33 0.31 0.31 0.31 0.29 0.28 0.27 0.24 0.25 0.24 0.22 0.22 0.20 0.21 0.20 0.21 0.21 0.20 0.19 0.20 0.22 0.22 0.22 0.21 0.20 0.20 0.21 0.21 0.18 0.17 0.20 0.24 0.22 0.19 0.22 0.24 0.24 0.35 0.35 0.36 0.38 0.41 0.46 0.48 0.49 0.51 0.52
0.54 0.55 0.56 0.59 0.61 0.62 0.62 0.61 0.60 0.57 0.54 0.51 0.48 0.46 0.44 0.44 0.43 0.43 0.43 0.44 0.45 0.45 0.44 0.44 0.46 0.44 0.39 0.47 0.37 0.31 0.40 0.38 0.38 0.35 0.33 0.26 0.28 0.32 0.32 0.35 0.37 0.36 0.32 0.31 0.31 0.33 0.29 0.27 0.26 0.26 0.24 0.21 0.20 0.20 0.20 0.20 0.22 0.22 0.21 0.19 0.19 0.20 0.20 0.22 0.21 0.20 0.19 0.17 0.18 0.18 0.17 0.17 0.21 0.20 0.18 0.21 0.24 0.24 0.26 0.33 0.34 0.35 0.39 0.42 0.44 0.46 0.50 0.52
0.55 0.58 0.62 0.65 0.67 0.67 0.66 0.65 0.63 0.61 0.59 0.56 0.54 0.50 0.47 0.45 0.44 0.43 0.43 0.44 0.46 0.44 0.44 0.46 0.48 0.50 0.51 0.48 0.40 0.40 0.45 0.35 0.35 0.35 0.34 0.30 0.29 0.32 0.34 0.34 0.36 0.36 0.36 0.29 0.27 0.28 0.26 0.25 0.26 0.25 0.21 0.24 0.19 0.21 0.20 0.21 0.21 0.21 0.19 0.17 0.19 0.19 0.17 0.19 0.19 0.19 0.19 0.16 0.17 0.17 0.14 0.13 0.14 0.15 0.17 0.18 0.22 0.25 0.26 0.27 0.35 0.34 0.37 0.41 0.42 0.44 0.47 0.47
0.58 0.62 0.65 0.66 0.66 0.67 0.67 0.66 0.64 0.62 0.60 0.58 0.57 0.54 0.51 0.47 0.45 0.43 0.44 0.43 0.46 0.45 0.45 0.47 0.51 0.53 0.46 0.33 0.40 0.53 0.45 0.47 0.36 0.33 0.32 0.30 0.33 0.33 0.33 0.32 0.29 0.29 0.28 0.26 0.26 0.29 0.32 0.30 0.27 0.23 0.26 0.23 0.21 0.17 0.21 0.20 0.20 0.20 0.20 0.18 0.18 0.18 0.17 0.19 0.20 0.20 0.19 0.18 0.18 0.17 0.10 0.12 0.13 0.13 0.15 0.17 0.18 0.22 0.23 0.22 0.29 0.32 0.36 0.40 0.41 0.42 0.46 0.46
0.60 0.65 0.64 0.64 0.65 0.65 0.66 0.65 0.65 0.65 0.62 0.59 0.58 0.55 0.52 0.49 0.47 0.46 0.45 0.43 0.46 0.46 0.46 0.50 0.54 0.46 0.43 0.36 0.45 0.50 0.46 0.50 0.36 0.32 0.30 0.29 0.26 0.27 0.28 0.28 0.28 0.28 0.29 0.27 0.29 0.31 0.30 0.30 0.27 0.26 0.27 0.22 0.20 0.24 0.20 0.20 0.20 0.16 0.18 0.18 0.15 0.14 0.14 0.19 0.19 0.21 0.19 0.21 0.20 0.18 0.13 0.13 0.14 0.14 0.15 0.17 0.20 0.20 0.19 0.20 0.20 0.32 0.34 0.37 0.39 0.40 0.42 0.45
0.61 0.63 0.63 0.63 0.63 0.62 0.62 0.62 0.64 0.66 0.65 0.63 0.61 0.58 0.54 0.50 0.47 0.46 0.47 0.45 0.47 0.50 0.50 0.54 0.52 0.40 0.30 0.36 0.51 0.55 0.49 0.41 0.34 0.30 0.31 0.28 0.25 0.24 0.25 0.27 0.26 0.27 0.28 0.29 0.29 0.30 0.30 0.28 0.26 0.23 0.22 0.24 0.24 0.20 0.17 0.17 0.18 0.17 0.14 0.12 0.14 0.13 0.13 0.15 0.20 0.21 0.18 0.19 0.21 0.19 0.14 0.15 0.16 0.16 0.17 0.19 0.20 0.21 0.20 0.21 0.22 0.30 0.33 0.36 0.39 0.41 0.44 0.46
0.58 0.60 0.61 0.61 0.61 0.60 0.60 0.60 0.61 0.63 0.65 0.65 0.64 0.63 0.61 0.55 0.48 0.46 0.46 0.45 0.48 0.50 0.53 0.39 0.39 0.36 0.31 0.28 0.45 0.45 0.38 0.31 0.29 0.31 0.32 0.29 0.26 0.23 0.25 0.26 0.27 0.27 0.27 0.28 0.29 0.26 0.27 0.27 0.21 0.21 0.21 0.22 0.19 0.17 0.16 0.15 0.15 0.16 0.14 0.13 0.13 0.14 0.14 0.15 0.19 0.20 0.20 0.20 0.21 0.19 0.16 0.18 0.15 0.18 0.19 0.20 0.20 0.20 0.20 0.21 0.22 0.26 0.32 0.34 0.38 0.40 0.44 0.47
0.53 0.57 0.57 0.57 0.58 0.59 0.59 0.59 0.59 0.62 0.66 0.67 0.67 0.65 0.64 0.63 0.58 0.49 0.46 0.44 0.45 0.53 0.44 0.37 0.49 0.49 0.23 0.40 0.53 0.36 0.34 0.30 0.33 0.32 0.31 0.30 0.27 0.26 0.25 0.25 0.24 0.25 0.28 0.29 0.27 0.26 0.25 0.22 0.22 0.20 0.21 0.18 0.18 0.19 0.14 0.12 0.13 0.14 0.16 0.14 0.15 0.14 0.15 0.14 0.18 0.21 0.22 0.20 0.19 0.20 0.18 0.19 0.19 0.20 0.20 0.22 0.22 0.21 0.21 0.22 0.23 0.25 0.33 0.34 0.37 0.40 0.43 0.46
0.50 0.52 0.54 0.53 0.54 0.55 0.56 0.57 0.58 0.59 0.64 0.68 0.71 0.73 0.68 0.69 0.66 0.54 0.45 0.45 0.49 0.48 0.49 0.53 0.51 0.40 0.31 0.49 0.33 0.33 0.37 0.34 0.32 0.32 0.30 0.29 0.27 0.26 0.25 0.23 0.24 0.25 0.27 0.25 0.27 0.22 0.26 0.20 0.20 0.16 0.18 0.18 0.20 0.19 0.14 0.10 0.12 0.16 0.18 0.14 0.15 0.17 0.18 0.16 0.16 0.20 0.22 0.22 0.20 0.20 0.20 0.20 0.20 0.21 0.21 0.23 0.23 0.23 0.23 0.23 0.24 0.26 0.31 0.33 0.36 0.40 0.42 0.44
0.44 0.48 0.50 0.50 0.50 0.51 0.51 0.52 0.54 0.55 0.58 0.62 0.68 0.82 0.86 0.79 0.72 0.62 0.43 0.43 0.32 0.29 0.31 0.38 0.31 0.21 0.22 0.35 0.38 0.38 0.36 0.35 0.34 0.28 0.26 0.25 0.26 0.26 0.25 0.26 0.25 0.25 0.22 0.20 0.24 0.23 0.25 0.23 0.22 0.18 0.15 0.17 0.18 0.19 0.17 0.17 0.23 0.24 0.27 0.26 0.26 0.23 0.22 0.22 0.23 0.24 0.23 0.21 0.21 0.21 0.19 0.20 0.22 0.22 0.23 0.23 0.25 0.25 0.26 0.26 0.28 0.28 0.32 0.34 0.35 0.38 0.42 0.42
0.42 0.42 0.46 0.48 0.48 0.50 0.48 0.50 0.49 0.51 0.53 0.53 0.57 0.68 0.78 0.61 0.55 0.58 0.55 0.45 0.31 0.48 0.52 0.50 0.41 0.33 0.35 0.37 0.38 0.39 0.42 0.38 0.28 0.29 0.27 0.27 0.25 0.24 0.24 0.24 0.24 0.24 0.22 0.20 0.25 0.26 0.27 0.20 0.18 0.17 0.19 0.22 0.27 0.27 0.25 0.27 0.27 0.27 0.28 0.28 0.27 0.25 0.27 0.28 0.27 0.27 0.29 0.23 0.22 0.23 0.23 0.24 0.25 0.26 0.27 0.27 0.27 0.27 0.26 0.26 0.27 0.29 0.31 0.33 0.34 0.36 0.40 0.41
0.40 0.40 0.42 0.44 0.46 0.48 0.49 0.47 0.47 0.50 0.53 0.53 0.54 0.49 0.42 0.32 0.30 0.30 0.46 0.46 0.47 0.50 0.48 0.48 0.48 0.37 0.30 0.37 0.38 0.37 0.32 0.32 0.31 0.29 0.29 0.30 0.27 0.24 0.22 0.22 0.22 0.20 0.21 0.24 0.25 0.33 0.28 0.23 0.22 0.22 0.25 0.28 0.33 0.37 0.35 0.30 0.28 0.26 0.25 0.26 0.27 0.27 0.27 0.28 0.29 0.31 0.31 0.25 0.25 0.27 0.26 0.25 0.26 0.27 0.28 0.30 0.30 0.28 0.28 0.27 0.27 0.29 0.31 0.33 0.34 0.35 0.36 0.41
0.37 0.37 0.38 0.39 0.42 0.43 0.45 0.46 0.46 0.51 0.56 0.56 0.51 0.46 0.49 0.36 0.41 0.48 0.46 0.34 0.39 0.43 0.48 0.47 0.51 0.44 0.39 0.38 0.40 0.39 0.34 0.31 0.31 0.30 0.32 0.31 0.28 0.22 0.23 0.22 0.20 0.18 0.22 0.25 0.27 0.29 0.25 0.24 0.28 0.32 0.35 0.38 0.36 0.37 0.37 0.34 0.30 0.29 0.26 0.25 0.25 0.27 0.29 0.30 0.32 0.34 0.33 0.29 0.27 0.29 0.25 0.25 0.27 0.26 0.27 0.27 0.27 0.30 0.30 0.28 0.27 0.27 0.30 0.32 0.33 0.34 0.36 0.37
0.36 0.35 0.35 0.35 0.37 0.39 0.40 0.45 0.46 0.52 0.52 0.50 0.45 0.49 0.46 0.42 0.46 0.51 0.50 0.39 0.36 0.50 0.45 0.47 0.39 0.32 0.32 0.36 0.38 0.38 0.28 0.29 0.28 0.29 0.30 0.32 0.29 0.25 0.23 0.22 0.21 0.21 0.23 0.26 0.25 0.26 0.25 0.28 0.30 0.36 0.38 0.35 0.36 0.36 0.35 0.34 0.33 0.30 0.28 0.25 0.23 0.27 0.26 0.25 0.33 0.36 0.35 0.32 0.29 0.29 0.25 0.26 0.27 0.27 0.26 0.27 0.24 0.25 0.30 0.29 0.28 0.28 0.28 0.31 0.34 0.36 0.36 0.36
0.34 0.34 0.33 0.33 0.34 0.38 0.44 0.47 0.52 0.52 0.51 0.53 0.51 0.43 0.46 0.48 0.51 0.47 0.36 0.29 0.38 0.44 0.45 0.43 0.37 0.32 0.34 0.30 0.35 0.32 0.28 0.30 0.32 0.30 0.32 0.31 0.27 0.27 0.24 0.23 0.22 0.22 0.21 0.24 0.25 0.25 0.26 0.34 0.42 0.40 0.37 0.34 0.31 0.35 0.33 0.31 0.29 0.31 0.29 0.27 0.26 0.26 0.26 0.28 0.30 0.33 0.34 0.34 0.33 0.30 0.26 0.25 0.26 0.24 0.25 0.26 0.22 0.19 0.22 0.28 0.28 0.30 0.30 0.32 0.35 0.37 0.39 0.38
0.32 0.32 0.33 0.32 0.34 0.43 0.44 0.49 0.43 0.45 0.50 0.54 0.53 0.51 0.46 0.52 0.52 0.48 0.34 0.33 0.39 0.44 0.47 0.42 0.36 0.43 0.43 0.45 0.43 0.30 0.32 0.32 0.33 0.29 0.30 0.30 0.27 0.23 0.22 0.26 0.23 0.21 0.21 0.23 0.25 0.24 0.25 0.33 0.37 0.36 0.36 0.36 0.35 0.32 0.31 0.31 0.28 0.29 0.32 0.30 0.29 0.29 0.26 0.26 0.31 0.29 0.27 0.25 0.29 0.27 0.20 0.19 0.23 0.22 0.22 0.22 0.28 0.23 0.23 0.25 0.27 0.28 0.29 0.31 0.32 0.33 0.35 0.37
0.31 0.32 0.32 0.33 0.33 0.41 0.46 0.41 0.42 0.48 0.46 0.43 0.46 0.44 0.47 0.52 0.51 0.57 0.50 0.39 0.30 0.43 0.46 0.33 0.34 0.37 0.48 0.42 0.37 0.33 0.33 0.28 0.37 0.34 0.32 0.30 0.31 0.26 0.23 0.21 0.22 0.19 0.21 0.22 0.23 0.24 0.27 0.35 0.34 0.32 0.32 0.31 0.30 0.29 0.32 0.33 0.29 0.27 0.28 0.32 0.30 0.30 0.28 0.25 0.25 0.26 0.22 0.20 0.24 0.30 0.20 0.16 0.22 0.20 0.22 0.24 0.25 0.24 0.26 0.28 0.29 0.30 0.31 0.32 0.31 0.31 0.31 0.32
0.32 0.32 0.34 0.33 0.32 0.31 0.23 0.25 0.43 0.48 0.37 0.39 0.46 0.46 0.45 0.46 0.47 0.62 0.47 0.36 0.29 0.39 0.36 0.38 0.33 0.38 0.41 0.39 0.34 0.36 0.25 0.28 0.35 0.34 0.33 0.31 0.23 0.28 0.21 0.20 0.22 0.20 0.22 0.24 0.20 0.20 0.30 0.31 0.32 0.33 0.31 0.30 0.29 0.27 0.30 0.30 0.27 0.23 0.30 0.30 0.28 0.28 0.28 0.27 0.28 0.26 0.24 0.27 0.26 0.28 0.24 0.19 0.17 0.14 0.18 0.25 0.24 0.23 0.23 0.26 0.29 0.30 0.28 0.29 0.31 0.31 0.32 0.32
0.32 0.34 0.34 0.34 0.33 0.30 0.21 0.30 0.34 0.31 0.31 0.39 0.42 0.41 0.38 0.42 0.49 0.61 0.51 0.20 0.22 0.40 0.31 0.37 0.36 0.43 0.36 0.36 0.32 0.29 0.29 0.34 0.28 0.31 0.36 0.29 0.22 0.22 0.18 0.20 0.19 0.21 0.23 0.22 0.15 0.24 0.29 0.31 0.33 0.32 0.30 0.27 0.24 0.27 0.29 0.30 0.24 0.22 0.28 0.32 0.30 0.28 0.28 0.28 0.28 0.25 0.23 0.22 0.19 0.22 0.25 0.19 0.15 0.15 0.24 0.26 0.23 0.23 0.23 0.26 0.28 0.30 0.32 0.32 0.32 0.32 0.32 0.32
0.33 0.34 0.33 0.33 0.38 0.44 0.41 0.32 0.31 0.27 0.36 0.37 0.37 0.36 0.41 0.44 0.53 0.37 0.30 0.17 0.35 0.32 0.44 0.31 0.43 0.35 0.30 0.30 0.27 0.25 0.28 0.30 0.22 0.28 0.31 0.30 0.29 0.22 0.17 0.20 0.21 0.22 0.25 0.24 0.20 0.22 0.27 0.28 0.33 0.32 0.30 0.26 0.28 0.26 0.27 0.27 0.22 0.27 0.30 0.31 0.29 0.28 0.28 0.28 0.24 0.22 0.20 0.16 0.12 0.16 0.21 0.15 0.13 0.17 0.22 0.26 0.24 0.23 0.24 0.27 0.30 0.32 0.31 0.32 0.31 0.31 0.32 0.33
0.34 0.33 0.33 0.32 0.49 0.57 0.53 0.53 0.44 0.46 0.45 0.38 0.38 0.38 0.50 0.55 0.47 0.31 0.26 0.19 0.34 0.29 0.31 0.33 0.30 0.28 0.32 0.26 0.26 0.29 0.22 0.24 0.25 0.28 0.29 0.28 0.25 0.21 0.19 0.24 0.22 0.21 0.21 0.24 0.23 0.24 0.27 0.30 0.35 0.32 0.30 0.30 0.29 0.27 0.28 0.26 0.26 0.31 0.31 0.28 0.27 0.25 0.24 0.26 0.24 0.21 0.15 0.11 0.12 0.15 0.18 0.19 0.15 0.18 0.22 0.22 0.26 0.26 0.29 0.30 0.31 0.32 0.33 0.33 0.31 0.28 0.30 0.33
0.34 0.34 0.33 0.34 0.33 0.48 0.52 0.46 0.46 0.50 0.49 0.36 0.37 0.42 0.49 0.51 0.32 0.22 0.17 0.24 0.27 0.30 0.34 0.31 0.29 0.30 0.27 0.26 0.24 0.29 0.27 0.29 0.26 0.26 0.25 0.27 0.23 0.21 0.21 0.19 0.20 0.18 0.19 0.21 0.21 0.22 0.24 0.27 0.26 0.27 0.29 0.27 0.21 0.23 0.28 0.29 0.31 0.29 0.28 0.25 0.24 0.21 0.20 0.17 0.19 0.19 0.14 0.11 0.16 0.20 0.18 0.21 0.16 0.18 0.24 0.26 0.27 0.30 0.30 0.29 0.30 0.33 0.34 0.34 0.32 0.31 0.30 0.32
0.34 0.35 0.37 0.34 0.32 0.43 0.29 0.36 0.36 0.43 0.36 0.36 0.42 0.47 0.45 0.25 0.35 0.20 0.17 0.35 0.18 0.29 0.28 0.27 0.29 0.30 0.27 0.28 0.24 0.25 0.25 0.25 0.30 0.27 0.25 0.24 0.24 0.22 0.22 0.20 0.20 0.15 0.13 0.14 0.15 0.20 0.19 0.20 0.23 0.25 0.27 0.25 0.22 0.17 0.21 0.23 0.27 0.28 0.25 0.22 0.15 0.13 0.15 0.14 0.17 0.15 0.14 0.13 0.18 0.23 0.25 0.21 0.19 0.22 0.25 0.28 0.28 0.30 0.31 0.31 0.32 0.36 0.36 0.34 0.34 0.34 0.33 0.33
0.35 0.36 0.38 0.36 0.38 0.34 0.40 0.42 0.38 0.40 0.40 0.42 0.41 0.46 0.36 0.20 0.13 0.20 0.23 0.22 0.23 0.29 0.26 0.25 0.21 0.20 0.24 0.21 0.19 0.19 0.22 0.18 0.28 0.27 0.27 0.24 0.23 0.22 0.23 0.22 0.23 0.20 0.14 0.20 0.22 0.22 0.23 0.26 0.27 0.27 0.28 0.29 0.26 0.19 0.16 0.18 0.22 0.25 0.23 0.22 0.18 0.13 0.11 0.10 0.15 0.18 0.18 0.21 0.27 0.25 0.30 0.22 0.25 0.26 0.30 0.29 0.31 0.31 0.33 0.35 0.32 0.30 0.29 0.30 0.33 0.36 0.37 0.37
0.35 0.39 0.37 0.44 0.44 0.44 0.40 0.43 0.42 0.45 0.37 0.38 0.38 0.36 0.33 0.21 0.17 0.26 0.24 0.26 0.26 0.29 0.24 0.22 0.23 0.20 0.20 0.17 0.16 0.18 0.15 0.18 0.20 0.23 0.25 0.26 0.26 0.24 0.23 0.23 0.24 0.23 0.21 0.20 0.19 0.21 0.18 0.19 0.24 0.26 0.24 0.28 0.26 0.25 0.22 0.17 0.21 0.23 0.26 0.25 0.22 0.20 0.18 0.15 0.17 0.16 0.18 0.20 0.24 0.28 0.23 0.22 0.20 0.25 0.31 0.34 0.35 0.36 0.35 0.35 0.35 0.33 0.32 0.32 0.33 0.37 0.40 0.40
0.45 0.48 0.51 0.49 0.54 0.50 0.45 0.46 0.42 0.44 0.40 0.34 0.28 0.29 0.18 0.18 0.24 0.20 0.20 0.22 0.26 0.25 0.18 0.21 0.19 0.16 0.13 0.12 0.15 0.16 0.15 0.15 0.22 0.22 0.22 0.22 0.21 0.22 0.22 0.23 0.28 0.28 0.27 0.20 0.23 0.21 0.20 0.21 0.27 0.29 0.29 0.29 0.27 0.28 0.28 0.25 0.20 0.22 0.26 0.27 0.23 0.20 0.24 0.17 0.19 0.20 0.20 0.20 0.19 0.22 0.21 0.24 0.24 0.32 0.33 0.34 0.35 0.36 0.35 0.34 0.33 0.33 0.32 0.31 0.34 0.38 0.39 0.42
0.52 0.57 0.66 0.56 0.57 0.55 0.47 0.41 0.42 0.46 0.32 0.29 0.20 0.18 0.20 0.23 0.21 0.23 0.22 0.25 0.23 0.18 0.16 0.14 0.13 0.12 0.14 0.14 0.17 0.18 0.19 0.15 0.20 0.19 0.19 0.21 0.22 0.21 0.25 0.26 0.22 0.23 0.23 0.20 0.22 0.19 0.21 0.19 0.26 0.28 0.31 0.29 0.27 0.27 0.26 0.28 0.19 0.27 0.24 0.21 0.22 0.28 0.25 0.22 0.22 0.24 0.23 0.21 0.17 0.23 0.23 0.23 0.28 0.28 0.28 0.29 0.29 0.28 0.30 0.31 0.31 0.30 0.32 0.32 0.32 0.35 0.38 0.41
0.42 0.51 0.54 0.61 0.64 0.53 0.46 0.42 0.41 0.31 0.36 0.29 0.20 0.15 0.25 0.27 0.30 0.26 0.28 0.25 0.22 0.17 0.12 0.09 0.12 0.13 0.12 0.12 0.17 0.22 0.24 0.24 0.24 0.23 0.20 0.23 0.20 0.22 0.22 0.24 0.26 0.27 0.28 0.26 0.25 0.28 0.21 0.21 0.26 0.24 0.24 0.28 0.29 0.28 0.29 0.28 0.30 0.28 0.24 0.25 0.26 0.26 0.26 0.23 0.18 0.20 0.18 0.15 0.15 0.19 0.18 0.20 0.22 0.19 0.27 0.28 0.28 0.30 0.31 0.30 0.34 0.33 0.35 0.33 0.32 0.32 0.33 0.34
0.43 0.46 0.47 0.57 0.57 0.59 0.50 0.46 0.35 0.38 0.37 0.27 0.21 0.25 0.34 0.31 0.37 0.30 0.32 0.29 0.26 0.20 0.12 0.11 0.12 0.13 0.12 0.15 0.15 0.21 0.24 0.22 0.22 0.21 0.20 0.22 0.20 0.28 0.24 0.23 0.27 0.28 0.32 0.34 0.26 0.30 0.29 0.21 0.24 0.27 0.26 0.27 0.28 0.26 0.24 0.27 0.29 0.25 0.23 0.26 0.20 0.18 0.17 0.22 0.19 0.14 0.14 0.13 0.13 0.15 0.18 0.17 0.18 0.18 0.22 0.23 0.26 0.29 0.31 0.34 0.34 0.32 0.33 0.37 0.37 0.34 0.36 0.36
0.52 0.51 0.45 0.55 0.57 0.51 0.41 0.33 0.35 0.40 0.33 0.25 0.27 0.24 0.35 0.30 0.32 0.27 0.27 0.26 0.23 0.18 0.12 0.13 0.12 0.17 0.16 0.15 0.17 0.18 0.21 0.21 0.24 0.22 0.20 0.22 0.17 0.38 0.29 0.27 0.26 0.31 0.33 0.34 0.30 0.31 0.31 0.22 0.22 0.28 0.26 0.27 0.26 0.25 0.18 0.21 0.26 0.26 0.25 0.22 0.23 0.19 0.18 0.17 0.19 0.20 0.18 0.14 0.13 0.12 0.15 0.13 0.16 0.18 0.21 0.22 0.32 0.30 0.31 0.32 0.33 0.35 0.35 0.38 0.41 0.42 0.38 0.39
0.42 0.41 0.41 0.59 0.46 0.36 0.35 0.26 0.26 0.38 0.33 0.25 0.28 0.25 0.31 0.26 0.29 0.30 0.28 0.22 0.20 0.17 0.14 0.12 0.12 0.11 0.14 0.16 0.17 0.15 0.17 0.17 0.19 0.21 0.21 0.23 0.20 0.29 0.23 0.27 0.28 0.29 0.31 0.34 0.31 0.34 0.27 0.29 0.19 0.24 0.28 0.26 0.19 0.22 0.19 0.20 0.19 0.21 0.20 0.20 0.22 0.22 0.27 0.23 0.23 0.20 0.19 0.17 0.16 0.15 0.13 0.14 0.19 0.26 0.29 0.31 0.33 0.34 0.34 0.32 0.35 0.36 0.37 0.39 0.41 0.42 0.43 0.45
0.44 0.36 0.42 0.49 0.39 0.33 0.29 0.27 0.22 0.26 0.28 0.34 0.33 0.28 0.30 0.27 0.29 0.29 0.26 0.21 0.22 0.25 0.19 0.16 0.16 0.14 0.14 0.14 0.13 0.17 0.16 0.16 0.16 0.15 0.16 0.18 0.20 0.18 0.32 0.30 0.30 0.27 0.30 0.31 0.27 0.31 0.24 0.25 0.19 0.22 0.22 0.21 0.21 0.26 0.26 0.26 0.26 0.25 0.24 0.21 0.22 0.20 0.19 0.18 0.17 0.24 0.24 0.23 0.21 0.20 0.16 0.18 0.23 0.28 0.29 0.35 0.36 0.36 0.37 0.35 0.35 0.38 0.40 0.40 0.43 0.45 0.45 0.43
0.34 0.30 0.36 0.41 0.38 0.34 0.25 0.18 0.23 0.33 0.33 0.30 0.29 0.32 0.33 0.33 0.26 0.22 0.21 0.20 0.19 0.17 0.21 0.19 0.19 0.17 0.17 0.17 0.18 0.19 0.18 0.18 0.18 0.17 0.18 0.17 0.21 0.23 0.29 0.33 0.31 0.31 0.27 0.26 0.28 0.35 0.31 0.28 0.23 0.19 0.20 0.20 0.22 0.25 0.26 0.26 0.26 0.24 0.23 0.21 0.23 0.23 0.24 0.21 0.16 0.18 0.24 0.24 0.26 0.25 0.21 0.16 0.23 0.31 0.38 0.37 0.36 0.37 0.37 0.36 0.36 0.38 0.39 0.38 0.39 0.39 0.40 0.41
0.24 0.25 0.40 0.42 0.33 0.30 0.20 0.18 0.23 0.20 0.21 0.23 0.26 0.28 0.30 0.29 0.24 0.22 0.21 0.22 0.17 0.21 0.21 0.19 0.20 0.19 0.20 0.19 0.19 0.18 0.18 0.16 0.18 0.18 0.20 0.20 0.18 0.24 0.29 0.29 0.30 0.30 0.28 0.27 0.30 0.29 0.32 0.21 0.18 0.19 0.22 0.22 0.22 0.22 0.21 0.21 0.20 0.18 0.19 0.22 0.22 0.21 0.23 0.23 0.22 0.24 0.21 0.22 0.21 0.22 0.19 0.16 0.25 0.31 0.33 0.35 0.35 0.37 0.37 0.37 0.36 0.35 0.36 0.37 0.35 0.36 0.37 0.38
0.25 0.24 0.35 0.38 0.34 0.25 0.15 0.14 0.14 0.14 0.15 0.21 0.23 0.22 0.26 0.22 0.18 0.15 0.17 0.24 0.21 0.19 0.17 0.18 0.19 0.21 0.18 0.18 0.17 0.15 0.18 0.14 0.18 0.18 0.17 0.19 0.19 0.27 0.28 0.29 0.29 0.25 0.24 0.30 0.24 0.29 0.21 0.26 0.20 0.15 0.14 0.14 0.16 0.18 0.17 0.22 0.22 0.20 0.18 0.19 0.20 0.21 0.22 0.23 0.24 0.25 0.19 0.19 0.19 0.19 0.14 0.14 0.20 0.29 0.31 0.33 0.34 0.33 0.35 0.36 0.36 0.35 0.35 0.35 0.35 0.35 0.35 0.35
0.27 0.30 0.35 0.33 0.34 0.23 0.14 0.20 0.19 0.18 0.19 0.17 0.15 0.14 0.15 0.15 0.15 0.16 0.20 0.19 0.23 0.21 0.19 0.17 0.17 0.17 0.18 0.19 0.18 0.19 0.20 0.19 0.17 0.20 0.19 0.20 0.18 0.22 0.22 0.24 0.25 0.24 0.26 0.28 0.27 0.28 0.21 0.19 0.16 0.12 0.10 0.08 0.07 0.08 0.10 0.15 0.19 0.20 0.20 0.18 0.19 0.19 0.18 0.19 0.17 0.20 0.17 0.19 0.21 0.19 0.17 0.18 0.21 0.27 0.28 0.29 0.30 0.31 0.33 0.34 0.35 0.36 0.36 0.36 0.36 0.35 0.34 0.33
0.22 0.14 0.22 0.23 0.24 0.22 0.26 0.28 0.28 0.23 0.20 0.18 0.15 0.15 0.14 0.13 0.16 0.20 0.22 0.23 0.24 0.23 0.21 0.20 0.20 0.20 0.18 0.18 0.17 0.18 0.18 0.22 0.20 0.19 0.20 0.20 0.22 0.23 0.24 0.26 0.28 0.32 0.32 0.32 0.30 0.26 0.21 0.21 0.19 0.17 0.14 0.12 0.14 0.17 0.20 0.21 0.18 0.15 0.16 0.17 0.16 0.18 0.19 0.20 0.20 0.18 0.16 0.18 0.18 0.19 0.19 0.19 0.19 0.20 0.22 0.25 0.27 0.28 0.28 0.29 0.29 0.31 0.32 0.32 0.33 0.32 0.29 0.26
0.26 0.19 0.18 0.14 0.18 0.21 0.21 0.23 0.23 0.24 0.22 0.22 0.15 0.15 0.13 0.14 0.17 0.19 0.25 0.19 0.22 0.21 0.22 0.23 0.24 0.21 0.21 0.20 0.19 0.19 0.20 0.20 0.22 0.22 0.21 0.20 0.22 0.24 0.28 0.26 0.29 0.34 0.33 0.30 0.31 0.26 0.22 0.18 0.19 0.18 0.17 0.17 0.18 0.18 0.20 0.20 0.17 0.15 0.14 0.13 0.16 0.17 0.19 0.19 0.18 0.16 0.20 0.17 0.14 0.17 0.20 0.19 0.16 0.16 0.17 0.20 0.24 0.25 0.25 0.24 0.25 0.26 0.27 0.25 0.21 0.17 0.16 0.16
0.16 0.20 0.24 0.28 0.19 0.15 0.14 0.13 0.17 0.18 0.20 0.21 0.17 0.19 0.16 0.16 0.19 0.19 0.23 0.24 0.26 0.28 0.25 0.27 0.27 0.26 0.25 0.23 0.22 0.19 0.22 0.22 0.22 0.21 0.25 0.25 0.25 0.27 0.24 0.28 0.27 0.36 0.36 0.31 0.32 0.25 0.22 0.18 0.20 0.20 0.17 0.18 0.19 0.19 0.20 0.19 0.18 0.16 0.14 0.13 0.11 0.13 0.16 0.17 0.17 0.18 0.18 0.16 0.13 0.14 0.16 0.16 0.15 0.14 0.15 0.18 0.22 0.22 0.22 0.23 0.23 0.22 0.21 0.19 0.18 0.18 0.20 0.22
0.25 0.23 0.27 0.29 0.19 0.19 0.17 0.18 0.22 0.23 0.24 0.25 0.25 0.24 0.22 0.22 0.21 0.25 0.24 0.25 0.27 0.29 0.31 0.24 0.27 0.28 0.28 0.28 0.27 0.23 0.23 0.19 0.21 0.26 0.26 0.25 0.26 0.25 0.22 0.23 0.28 0.30 0.30 0.28 0.29 0.29 0.24 0.20 0.22 0.21 0.18 0.18 0.19 0.20 0.20 0.19 0.19 0.18 0.16 0.15 0.17 0.18 0.18 0.17 0.15 0.16 0.16 0.15 0.16 0.15 0.14 0.15 0.16 0.15 0.17 0.19 0.20 0.20 0.21 0.22 0.21 0.19 0.19 0.21 0.22 0.24 0.26 0.27
0.21 0.23 0.20 0.25 0.23 0.21 0.23 0.25 0.25 0.26 0.26 0.29 0.25 0.25 0.25 0.26 0.26 0.29 0.30 0.26 0.24 0.27 0.31 0.27 0.26 0.27 0.26 0.25 0.25 0.23 0.26 0.27 0.27 0.23 0.26 0.25 0.25 0.27 0.25 0.25 0.23 0.27 0.30 0.27 0.27 0.28 0.23 0.19 0.22 0.21 0.18 0.17 0.20 0.22 0.22 0.20 0.20 0.17 0.17 0.17 0.18 0.18 0.17 0.17 0.17 0.16 0.17 0.16 0.16 0.16 0.15 0.13 0.14 0.18 0.17 0.17 0.18 0.20 0.20 0.20 0.20 0.23 0.24 0.25 0.25 0.26 0.27 0.27
0.31 0.38 0.37 0.28 0.21 0.23 0.26 0.25 0.23 0.22 0.22 0.24 0.22 0.25 0.27 0.28 0.28 0.29 0.28 0.29 0.26 0.25 0.26 0.24 0.27 0.27 0.26 0.24 0.23 0.24 0.29 0.30 0.30 0.29 0.30 0.29 0.24 0.29 0.26 0.27 0.30 0.24 0.24 0.24 0.25 0.26 0.25 0.20 0.22 0.21 0.18 0.16 0.20 0.20 0.19 0.20 0.18 0.16 0.14 0.16 0.17 0.15 0.14 0.15 0.14 0.14 0.14 0.13 0.13 0.13 0.11 0.10 0.11 0.14 0.16 0.17 0.18 0.20 0.21 0.23 0.25 0.27 0.30 0.29 0.28 0.28 0.27 0.27
0.34 0.39 0.40 0.35 0.23 0.27 0.24 0.27 0.27 0.26 0.24 0.30 0.29 0.28 0.27 0.29 0.30 0.30 0.26 0.31 0.31 0.30 0.29 0.30 0.30 0.28 0.25 0.25 0.24 0.25 0.27 0.28 0.29 0.29 0.30 0.30 0.30 0.30 0.31 0.31 0.31 0.28 0.26 0.24 0.25 0.22 0.23 0.21 0.18 0.19 0.16 0.15 0.20 0.21 0.18 0.18 0.17 0.13 0.13 0.15 0.15 0.16 0.16 0.15 0.16 0.16 0.16 0.16 0.14 0.12 0.12 0.15 0.17 0.20 0.21 0.22 0.24 0.24 0.25 0.27 0.28 0.29 0.32 0.34 0.32 0.31 0.31 0.29
Wind_Speed
12 12 11 11 11 11 11 10 10 10 10 10 10 10 10 10 11 11 11 11 11 11 12 12 12 12 13 13 13 13 14 14 14 15 15 15 14 15 15 15 16 16 16 16 16 17 17 17 18 18 17 17 16 16 16 16 17 16 16 16 16 15 14 13 11 10 8 10 12 13 13 12 13 13 11 11 10 9 9 9 9 9 11 11 12 12 12 12
12 11 11 10 10 10 10 10 9 9 9 9 9 9 9 9 10 10 10 10 10 11 11 11 11 12 12 12 12 13 13 13 14 15 16 15 14 14 14 14 14 15 15 15 15 16 16 15 16 16 16 16 16 16 15 15 15 15 15 15 16 14 14 12 11 12 9 11 13 14 14 12 13 14 13 12 11 11 11 11 10 9 10 11 13 13 13 13
11 11 10 10 10 10 9 9 9 9 8 8 8 8 8 8 9 9 9 9 9 10 10 10 10 11 11 11 11 11 11 12 13 14 14 14 14 14 14 14 14 14 14 14 14 15 15 15 15 15 15 15 15 15 15 14 14 15 15 14 15 14 14 12 12 13 10 10 13 11 12 13 13 14 14 13 13 14 15 15 13 13 13 14 14 14 14 14
11 10 10 9 9 9 9 8 8 8 8 8 8 7 7 7 8 8 8 8 8 9 9 9 9 9 9 10 9 10 10 10 10 11 10 11 12 12 13 13 13 13 13 13 13 14 15 15 14 14 14 14 14 15 14 14 13 14 15 14 14 14 14 12 11 12 11 11 11 10 10 12 13 13 13 14 14 16 17 18 17 16 17 16 16 15 15 14
10 10 9 9 9 8 8 8 8 8 8 7 7 7 7 7 7 7 8 8 8 8 8 8 8 8 8 8 8 8 8 7 7 8 8 9 10 11 12 12 12 12 12 12 12 13 14 13 13 14 14 13 13 13 13 15 14 12 14 16 15 15 15 13 11 10 10 11 11 10 11 11 12 12 12 12 13 15 17 18 17 17 17 16 16 15 15 14
10 9 9 9 8 8 8 8 8 8 7 7 7 7 6 6 6 7 7 7 7 7 7 7 7 7 7 7 7 7 6 6 6 7 7 8 8 9 10 10 10 10 10 10 11 12 13 12 12 12 12 12 13 13 12 15 15 12 13 15 16 17 16 14 13 11 10 10 10 10 12 12 12 11 11 9 10 11 12 15 15 14 15 14 13 13 14 15
9 9 8 8 8 8 8 8 8 8 7 7 7 7 6 6 6 6 7 7 7 7 7 7 7 6 6 6 6 6 7 7 7 7 7 7 7 8 8 8 8 9 9 10 10 11 12 11 11 11 11 10 11 12 12 14 15 14 13 14 15 16 16 14 13 13 12 12 11 10 11 13 13 13 12 9 8 7 6 10 13 13 14 13 12 12 14 14
9 8 8 8 7 7 8 8 8 8 7 7 7 7 7 6 6 6 6 6 7 7 7 6 6 6 5 5 5 6 7 7 7 6 6 6 6 7 7 7 7 8 9 10 10 10 10 10 10 10 9 9 10 10 12 13 14 14 14 14 15 14 13 13 13 14 15 15 13 12 12 13 12 13 12 11 10 8 8 10 12 13 14 14 14 13 14 14
8 8 8 7 7 7 7 7 7 7 7 7 7 7 7 7 6 6 6 6 6 6 6 6 6 5 5 5 5 6 6 5 5 6 5 5 6 6 6 6 8 8 9 10 10 10 10 10 10 9 9 11 12 13 13 13 14 14 14 15 15 14 12 12 12 13 14 16 15 13 14 14 12 11 11 11 11 11 11 13 14 14 15 15 15 15 15 15
8 8 8 7 7 7 7 7 7 7 7 7 7 7 7 7 7 7 6 6 6 6 6 6 5 5 4 5 5 5 5 4 4 5 4 5 6 6 6 7 8 9 9 10 10 10 11 10 10 10 11 12 12 13 13 13 13 14 14 15 14 13 13 13 12 12 13 16 17 15 15 16 15 14 13 13 11 11 13 15 17 17 17 17 17 16 16 16
7 7 7 7 7 7 7 7 7 7 7 7 7 7 7 7 7 7 7 7 7 7 6 6 5 5 5 5 5 5 5 4 4 4 5 6 6 6 7 7 7 9 10 9 9 10 10 11 11 10 10 10 9 11 12 11 12 12 12 14 14 13 14 13 11 13 12 14 16 15 15 15 16 16 16 16 13 13 15 15 16 17 17 18 18 17 17 17
7 7 7 7 7 7 7 8 8 7 7 7 7 7 7 8 7 7 7 7 7 7 6 6 5 5 5 6 7 6 6 5 4 5 5 6 6 7 7 7 8 9 10 8 8 9 9 11 11 9 9 9 8 9 10 10 10 10 10 12 13 12 14 14 13 14 13 13 14 13 14 15 16 17 17 17 16 16 17 15 15 16 17 18 17 17 17 17
7 7 7 7 7 8 8 8 8 8 7 7 7 7 7 7 7 8 7 7 7 7 7 7 6 6 6 7 7 7 7 7 6 6 6 6 6 7 7 7 8 9 9 8 8 9 9 9 9 9 10 9 8 9 9 10 10 10 11 13 13 13 14 15 14 14 13 13 14 12 13 15 15 18 19 18 18 19 19 17 15 16 17 17 17 17 16 17
7 7 7 7 8 8 8 8 8 8 7 7 7 7 7 7 7 7 7 8 8 8 8 8 7 7 7 8 8 7 8 7 7 7 7 7 7 8 8 8 7 8 9 9 9 9 9 10 9 10 11 10 9 10 10 10 9 10 11 12 13 14 15 15 15 15 14 14 13 10 12 14 14 17 20 19 19 19 18 17 16 16 17 18 18 17 17 17
8 7 7 7 8 8 8 8 8 8 7 7 6 6 6 6 6 6 7 7 7 8 8 8 8 8 8 10 9 8 8 8 9 9 8 9 9 9 9 9 9 9 10 10 10 9 10 10 10 11 11 11 10 10 10 10 10 10 11 12 13 13 14 14 15 17 15 14 12 11 12 13 13 15 18 20 20 19 17 17 17 16 17 18 18 18 18 18
8 8 8 8 8 8 8 8 8 8 7 7 6 6 6 5 6 6 6 7 7 8 8 7 8 8 8 9 9 7 8 9 10 10 10 10 10 10 9 10 10 10 10 10 10 10 10 10 10 11 12 10 10 10 10 10 10 10 11 12 12 13 14 13 14 17 16 14 13 13 13 12 13 13 13 15 20 19 17 18 17 16 17 19 18 18 18 18
8 8 8 8 8 8 8 8 8 7 7 7 7 6 6 6 5 6 6 6 6 7 7 7 7 8 9 9 9 9 9 10 11 11 11 11 11 11 10 10 10 11 11 11 11 11 10 10 10 11 12 11 10 10 10 11 11 11 12 13 12 13 14 14 14 15 15 14 15 15 13 12 13 13 10 10 15 17 17 17 17 16 17 19 19 19 19 19
9 8 8 8 8 8 8 8 8 7 7 7 7 7 6 6 6 5 5 6 6 6 7 7 7 7 9 9 10 10 10 9 9 10 10 11 12 12 11 11 11 10 10 11 11 11 10 10 9 10 11 11 11 9 10 12 11 10 11 11 12 12 13 13 13 14 15 15 15 14 14 13 12 13 11 11 14 16 17 17 17 17 17 19 19 19 19 19
9 9 9 9 8 8 8 8 8 8 8 7 7 7 6 6 6 6 6 6 6 5 5 7 7 6 7 8 9 8 7 8 8 9 10 11 11 12 12 12 11 11 11 10 10 10 9 9 9 10 11 11 12 11 11 12 11 10 10 10 11 11 10 11 11 14 15 16 15 14 14 13 12 12 13 14 15 17 18 18 17 17 17 18 19 19 19 20
10 9 9 9 9 9 9 9 8 8 8 8 7 7 6 6 5 6 6 7 8 8 8 8 9 9 8 8 7 6 6 8 9 10 10 11 11 11 12 12 11 11 11 10 10 10 10 10 10 11 12 12 11 11 12 12 11 11 11 11 11 10 8 8 8 10 12 14 15 14 14 15 14 14 15 16 17 18 18 18 17 17 18 19 20 20 20 20
10 10 10 9 9 9 9 9 9 9 8 8 7 7 7 6 5 6 7 8 10 12 12 11 11 12 11 8 6 7 8 9 10 10 9 10 10 10 11 11 11 11 12 12 11 10 10 11 12 13 13 12 11 10 10 11 12 12 11 12 12 11 10 10 9 10 11 13 15 14 14 16 15 15 16 16 18 19 19 19 18 18 18 19 20 20 20 21
10 10 10 10 10 9 9 9 9 8 8 8 7 7 8 8 7 8 8 8 10 12 13 13 13 13 12 11 9 9 10 10 10 10 9 9 10 10 10 10 11 11 11 12 12 11 12 12 13 14 13 12 12 11 10 10 11 12 12 12 13 14 13 12 11 11 12 14 16 15 15 17 18 17 18 18 19 21 23 22 20 20 19 19 20 20 20 20
10 10 10 10 10 10 10 9 9 8 7 7 7 7 8 8 8 9 9 8 9 10 11 12 12 12 12 12 11 11 11 10 11 11 10 9 10 10 11 10 10 11 11 11 12 12 12 13 14 14 12 12 13 13 11 12 12 13 13 13 14 15 14 13 13 13 13 14 16 16 17 19 19 19 19 21 22 23 26 25 23 22 20 19 20 20 20 20
10 10 10 10 10 9 9 9 9 8 7 8 9 9 9 9 8 9 8 8 8 9 9 9 10 9 9 9 9 10 10 10 11 10 10 10 9 10 11 11 11 11 11 13 14 14 14 14 13 12 11 12 14 14 12 12 14 15 14 14 15 15 16 16 16 14 14 15 16 16 17 19 19 20 20 21 21 21 24 26 24 22 21 20 19 19 19 19
10 10 9 9 8 8 9 9 8 8 8 9 9 9 9 8 8 8 7 7 8 7 7 7 8 8 7 7 7 9 9 10 10 8 8 10 10 10 10 12 12 12 13 14 15 16 17 15 12 12 13 13 14 15 14 13 14 16 16 16 16 16 17 18 17 16 16 17 17 15 17 19 18 19 20 18 18 18 19 22 23 21 20 20 20 20 19 18
10 9 9 8 7 8 8 7 7 8 8 7 8 8 8 8 8 7 6 7 7 6 5 5 6 6 6 7 8 7 8 10 9 7 8 9 11 11 10 11 12 12 13 13 13 14 15 14 13 13 14 14 14 15 15 13 14 16 16 16 17 17 18 19 18 17 17 18 18 16 17 18 18 18 18 17 17 17 16 17 20 20 20 20 20 20 19 18
9 9 8 8 7 7 7 7 8 9 7 6 8 9 8 8 8 7 6 6 6 6 5 4 5 5 6 7 8 6 7 8 8 8 8 8 9 10 11 12 11 11 12 12 12 13 12 12 12 13 13 14 14 14 15 14 14 16 16 15 15 15 16 18 18 18 18 19 19 18 17 18 19 18 16 15 15 17 17 16 17 18 19 20 20 20 20 20
9 8 8 7 7 7 6 7 7 8 7 8 9 8 7 7 7 6 4 4 5 6 5 6 6 6 7 8 9 9 9 8 8 9 9 8 8 9 10 13 12 12 12 12 14 14 11 11 12 12 13 13 13 14 15 15 15 16 15 15 14 14 14 14 14 15 16 17 18 18 16 17 18 16 14 14 14 16 18 18 17 17 18 18 20 21 21 20
8 8 7 7 6 6 6 6 6 7 8 8 8 7 7 7 6 5 3 3 5 5 5 6 6 7 7 7 7 9 10 9 9 9 9 9 10 9 10 12 12 13 14 13 13 13 12 13 13 12 12 13 14 15 14 13 14 14 12 12 12 13 14 13 12 12 13 15 17 16 14 15 16 16 14 13 14 15 18 19 18 18 18 17 17 19 20 20
8 7 7 6 5 5 5 5 6 6 7 8 8 7 6 6 4 4 3 4 4 4 4 5 6 7 7 7 7 8 8 9 9 9 9 9 10 9 9 11 11 12 13 13 13 13 13 13 13 12 12 12 13 14 13 13 14 13 11 11 12 13 14 14 13 13 13 14 16 15 15 15 16 15 14 13 13 15 15 16 17 18 17 16 16 16 17 19
7 6 6 6 5 5 5 5 5 6 7 8 7 6 6 5 3 2 2 4 4 4 5 5 6 6 7 8 8 8 8 9 10 10 9 9 8 8 8 10 11 11 12 13 13 14 14 13 14 14 13 12 13 14 13 14 13 11 10 10 11 12 13 13 14 13 13 14 15 15 16 16 16 16 14 13 14 13 9 10 14 16 16 16 16 16 17 18
7 6 6 5 4 5 5 5 6 6 7 7 7 6 5 4 3 2 3 4 4 4 5 5 7 7 8 9 8 9 9 10 9 9 10 10 10 10 10 9 10 9 10 12 12 13 13 14 15 15 15 14 13 13 14 14 12 11 11 10 10 12 12 12 13 13 14 15 15 14 14 15 17 17 15 14 15 13 9 9 11 12 14 15 16 17 17 17
6 6 5 4 4 4 4 5 6 6 7 7 6 5 4 3 3 4 5 5 4 4 5 6 8 7 8 9 9 10 11 10 9 9 11 11 11 11 11 11 10 9 10 11 12 12 13 14 14 13 14 14 12 12 13 13 13 13 13 11 11 11 11 12 13 13 14 14 14 13 13 14 16 16 15 14 15 15 13 12 12 13 14 15 17 17 16 16
6 5 4 4 3 4 5 6 6 6 7 7 6 5 5 4 5 6 7 6 5 6 6 9 9 8 9 10 10 11 11 11 10 9 11 12 11 11 12 12 12 11 11 11 12 12 12 13 12 11 12 12 13 12 12 12 13 14 13 12 12 11 11 12 12 12 13 13 14 13 12 13 13 13 13 12 12 13 13 12 12 14 15 15 16 17 16 16
5 4 4 4 4 5 6 6 6 7 7 7 6 5 5 5 6 7 7 6 7 8 9 11 12 11 11 11 11 12 11 10 9 9 10 11 11 12 12 12 13 13 12 12 13 13 12 13 12 12 12 12 13 13 13 13 14 14 13 13 14 13 13 14 13 13 13 14 15 14 14 15 15 15 15 13 12 13 14 14 13 14 15 14 14 15 15 16
5 4 4 5 4 5 6 6 6 7 7 7 7 6 6 7 7 7 6 7 8 10 11 12 11 11 11 11 11 10 8 9 10 10 12 12 11 12 12 12 14 15 14 14 14 13 13 15 13 12 13 13 13 14 14 13 12 12 13 14 14 13 13 14 15 14 12 14 16 14 15 18 17 17 17 15 14 14 15 16 15 15 15 15 15 14 14 15
6 6 6 6 5 5 6 7 7 7 8 8 7 7 8 8 8 8 7 8 9 11 12 11 10 10 11 11 10 9 8 9 9 10 11 12 12 12 11 10 11 12 12 12 13 13 13 16 15 14 14 14 13 13 14 13 12 13 14 14 14 13 12 13 13 13 12 14 16 14 16 17 15 14 14 13 15 16 15 15 14 13 14 15 16 16 16 16
7 7 7 7 6 7 8 8 9 8 9 9 8 9 8 8 8 8 7 9 11 11 12 11 11 11 11 11 11 11 11 11 10 10 11 11 12 12 11 11 10 9 9 9 11 12 12 14 15 14 14 15 14 13 15 16 16 16 15 15 14 13 14 14 13 13 13 14 16 15 16 16 16 16 15 14 13 13 12 11 12 12 11 12 15 15 15 16
8 8 8 7 7 9 10 9 9 10 10 9 9 9 9 8 8 8 8 9 11 12 13 12 12 12 12 12 13 13 13 13 13 12 11 11 13 14 13 13 13 12 11 11 12 13 13 14 16 15 15 16 15 15 15 16 16 17 16 16 16 15 15 15 15 15 14 15 17 17 16 16 17 16 14 14 13 12 11 10 10 11 10 11 13 13 14 14
9 8 8 8 9 10 11 10 10 10 10 9 9 10 10 10 10 11 12 12 12 12 13 13 13 14 14 14 14 14 14 15 15 14 14 14 14 15 14 14 15 14 13 13 14 15 16 17 18 17 16 17 17 16 16 16 15 15 16 17 17 17 17 17 17 17 16 15 16 16 17 18 17 14 12 13 15 14 12 11 12 11 10 10 12 13 14 15
10 9 9 9 10 11 11 11 10 10 10 10 11 11 11 11 12 14 15 15 13 13 14 14 14 14 15 15 15 15 15 15 16 15 16 15 14 14 14 14 14 15 15 15 15 17 17 18 19 19 18 19 20 19 18 18 18 17 17 18 18 18 18 18 19 20 17 16 17 16 18 20 19 16 15 16 15 14 13 13 13 13 11 11 11 12 13 14
10 10 10 11 11 12 12 11 11 11 11 11 12 13 12 13 14 15 16 16 16 16 15 15 15 15 15 15 15 15 15 15 16 16 16 15 14 15 15 14 14 15 16 16 17 18 18 18 20 21 21 22 23 22 22 22 22 21 20 20 20 19 18 18 19 20 18 18 19 17 18 21 19 15 15 15 14 14 14 14 15 14 13 13 14 15 15 16
12 12 12 12 12 12 12 12 12 12 12 13 14 14 14 15 16 17 17 17 17 16 15 15 16 16 16 16 16 17 16 16 16 16 17 17 16 16 16 15 16 16 16 17 18 19 19 18 20 22 22 22 23 22 22 22 21 21 20 20 19 18 18 19 20 20 19 19 20 17 19 22 19 15 15 16 16 15 15 15 16 17 17 17 18 18 18 18
14 14 13 12 13 14 13 13 13 14 15 15 16 16 17 18 19 19 19 18 17 17 17 17 18 18 18 18 18 18 17 17 17 17 17 18 17 17 16 16 17 18 18 19 19 20 20 19 20 21 21 22 21 20 19 18 17 18 19 19 19 17 17 18 18 18 19 21 21 19 21 24 23 20 19 19 19 19 18 18 19 19 20 20 20 20 21 21
14 14 14 14 15 14 13 13 15 15 16 16 17 18 19 20 20 20 21 20 18 18 19 19 20 19 19 19 19 19 18 18 18 17 18 18 18 19 19 17 17 18 18 19 18 19 20 20 20 21 21 22 20 18 17 17 17 19 20 20 21 20 20 19 18 18 19 21 21 20 23 26 25 23 22 22 22 22 22 22 23 23 23 23 23 24 24 24
15 14 15 16 16 15 14 15 16 16 17 17 18 20 20 20 20 21 20 19 18 19 19 19 20 20 19 19 19 19 19 19 19 19 19 19 19 19 19 19 18 17 17 17 17 18 19 21 21 21 23 24 24 23 21 21 22 24 24 24 24 23 22 20 19 20 21 22 23 24 25 27 27 26 24 23 23 24 25 26 26 27 27 27 28 30 30 30
15 15 15 16 17 16 16 18 18 18 19 20 20 21 22 21 21 20 19 19 20 20 20 19 19 18 18 19 19 19 19 19 20 20 20 20 20 20 20 19 17 16 16 17 18 18 19 21 22 23 25 25 25 26 25 25 26 27 28 28 28 25 23 21 22 24 24 23 26 27 25 26 29 30 28 25 25 26 28 28 28 29 30 31 32 34 34 34
16 17 17 17 18 18 18 20 22 22 22 22 22 22 22 22 21 20 20 20 20 20 19 19 18 17 18 19 19 19 19 19 20 20 19 20 20 20 21 20 18 17 18 19 19 18 20 22 22 22 24 25 24 24 24 25 26 27 28 29 28 26 24 24 26 26 25 24 27 28 27 27 30 31 30 28 27 28 29 29 30 31 32 33 33 33 33 32
17 18 19 19 19 21 22 23 24 24 22 21 21 21 21 21 21 21 20 19 18 18 18 18 19 19 18 18 19 18 18 19 19 19 19 20 20 20 20 21 20 20 21 21 20 19 20 22 22 22 25 26 24 24 25 25 26 27 29 29 27 25 26 27 27 27 26 27 28 29 30 30 30 30 30 29 29 29 29 30 32 32 32 31 30 30 30 31
19 20 21 21 21 22 23 23 23 22 21 21 21 20 20 21 20 20 20 18 17 18 18 19 20 20 20 19 19 18 18 18 19 20 20 20 21 20 20 21 21 21 23 23 22 21 21 23 23 23 25 26 24 23 24 24 25 27 29 28 25 26 27 27 27 26 27 28 29 28 30 32 30 28 29 31 31 30 30 30 30 30 29 29 29 30 31 31
20 21 21 22 21 21 22 22 22 21 21 21 21 20 20 19 19 19 19 19 19 19 19 20 22 22 21 21 21 19 19 19 20 21 22 21 22 22 22 22 22 23 23 23 23 22 22 24 24 23 25 26 22 22 24 23 25 29 30 27 25 26 26 25 25 25 26 27 28 28 29 31 30 28 29 30 30 29 28 28 27 28 29 29 29 30 31 32
21 21 21 22 22 22 22 22 22 21 20 20 21 21 20 19 19 20 20 20 20 19 19 20 21 21 21 21 21 21 21 22 23 23 23 23 24 25 25 26 26 25 24 22 23 23 22 24 24 23 25 25 21 21 22 22 23 27 26 23 23 23 24 24 24 24 24 24 25 27 28 27 27 27 27 27 27 27 27 26 27 28 29 30 30 32 33 34
Wind_Direction
307 302 299 298 295 294 293 292 291 290 289 286 282 277 272 269 265 264 261 259 259 259 260 261 262 264 264 266 268 271 272 269 266 263 256 251 251 253 254 250 247 244 246 251 249 245 244 245 244 243 243 244 242 241 242 239 239 237 234 239 243 241 233 225 230 247 258 241 229 226 229 231 225 225 233 233 230 223 221 232 235 234 230 226 222 212 210 214
310 306 301 300 297 294 293 291 291 291 291 288 284 279 274 269 265 263 261 260 259 261 262 263 264 265 266 267 270 273 273 270 268 263 255 251 251 251 248 245 244 243 245 249 247 241 240 241 239 238 238 240 238 237 238 234 234 234 231 235 237 232 223 223 243 253 250 243 243 236 232 237 230 231 243 241 234 231 231 232 225 222 224 220 217 214 216 219
312 310 303 301 299 296 294 292 292 292 292 290 286 281 276 270 265 263 261 260 260 262 264 265 266 266 268 268 272 276 274 272 268 262 255 249 247 245 242 243 243 244 246 247 243 239 238 240 239 236 234 236 237 234 233 232 234 232 231 235 232 222 220 234 253 250 240 241 248 245 238 235 229 236 246 242 239 240 238 233 229 225 222 221 222 222 224 226
314 312 307 303 301 298 295 294 293 292 292 290 288 283 278 272 267 263 261 261 262 264 265 266 268 268 270 271 275 278 274 272 265 262 256 243 239 240 239 240 243 244 246 244 240 239 241 243 245 239 232 232 233 233 232 230 232 231 229 231 227 221 226 242 257 252 243 240 241 243 245 234 230 239 242 240 245 247 242 231 225 223 222 221 223 227 228 228
314 314 312 307 304 301 297 295 294 293 293 291 288 284 279 273 268 265 262 262 263 264 267 268 269 270 272 273 275 273 269 269 263 258 249 235 232 235 235 237 240 241 240 237 235 238 240 239 243 241 232 230 231 231 232 227 226 232 230 228 229 228 234 243 253 261 254 241 237 241 248 240 236 243 240 240 244 248 248 232 222 221 218 218 221 225 226 226
316 316 314 310 306 304 301 298 296 295 294 291 288 285 280 274 269 266 262 262 262 264 267 267 269 271 273 273 268 261 257 262 262 251 236 229 229 230 231 231 232 234 231 228 229 234 238 235 235 236 229 229 232 230 233 228 223 233 234 226 228 231 237 244 245 251 253 243 243 248 247 239 237 242 242 242 238 245 250 228 218 217 213 214 214 215 221 225
318 318 317 314 308 306 304 300 297 296 294 291 288 284 280 275 271 269 265 263 263 264 265 265 269 271 275 271 256 251 254 262 263 243 228 228 229 224 221 222 223 224 220 220 224 227 232 230 226 229 226 224 229 230 235 231 222 230 235 228 232 238 240 243 242 243 247 244 248 257 251 243 240 239 242 240 227 229 230 209 206 211 211 212 209 209 218 224
320 320 319 317 312 308 306 303 300 296 294 291 288 284 280 275 272 270 267 265 263 263 263 264 268 271 274 264 252 257 258 261 256 231 224 229 226 217 212 214 213 212 211 213 219 220 223 225 221 223 223 222 228 232 237 235 229 231 235 234 236 242 239 236 243 246 246 244 246 255 255 252 245 237 237 232 223 217 202 197 200 208 215 217 217 218 223 229
322 322 321 320 318 313 309 307 303 299 295 292 288 284 280 275 271 269 266 265 263 261 260 262 266 268 266 253 255 263 259 254 231 214 221 223 215 209 207 207 203 201 206 212 217 219 222 222 219 224 231 237 243 244 245 242 236 234 237 238 237 240 238 233 242 248 245 244 244 249 251 253 249 241 239 228 224 222 209 206 210 212 219 224 227 229 232 236
325 325 325 323 323 320 316 312 307 304 299 295 290 285 281 276 271 268 265 264 262 260 259 260 261 262 257 251 258 260 254 239 206 207 218 210 202 202 205 204 202 204 210 215 217 222 226 225 229 243 247 249 250 246 248 243 232 233 236 236 235 239 243 239 243 248 244 243 244 244 245 248 246 242 240 232 228 226 216 213 217 220 224 229 233 235 238 240
329 328 329 328 327 325 322 318 313 308 302 297 293 288 283 277 272 268 265 263 262 261 258 258 257 253 250 250 257 258 243 216 205 218 213 201 200 205 209 209 209 213 217 220 223 228 232 236 243 250 244 247 256 249 251 246 231 234 235 233 238 242 244 240 241 248 247 244 243 241 243 247 245 241 238 235 233 230 224 221 221 226 231 232 236 239 242 243
334 332 331 330 329 328 326 323 318 313 306 299 294 289 285 279 273 268 265 263 261 261 258 255 252 247 251 253 252 255 245 226 222 220 208 207 214 220 225 225 221 219 223 228 237 246 249 253 250 242 236 240 250 247 252 256 240 237 237 236 246 252 246 238 238 246 247 242 238 238 246 250 246 244 240 234 233 231 232 233 225 227 233 233 237 239 242 243
336 334 333 331 330 329 328 325 321 317 312 305 297 291 286 280 275 269 265 263 260 259 256 253 251 248 253 257 252 253 252 244 236 220 213 222 227 230 235 234 229 228 231 234 243 255 259 259 248 235 239 239 239 241 248 258 248 239 240 241 249 256 252 242 240 243 243 239 234 233 244 250 250 248 244 236 231 230 234 240 232 228 234 235 237 239 240 241
336 335 334 333 331 329 328 326 323 320 317 312 304 296 289 280 274 269 266 263 260 258 256 252 251 250 252 259 261 256 251 249 241 229 226 232 232 234 236 234 235 237 239 239 243 251 253 255 247 238 240 238 240 250 251 251 245 240 247 249 247 253 256 248 241 238 242 240 230 230 244 252 257 254 250 240 229 227 232 239 237 230 232 236 239 241 242 243
338 336 334 332 332 330 330 328 324 321 318 317 312 305 296 284 275 269 266 263 260 259 256 253 250 252 259 266 269 258 248 249 243 236 235 235 235 238 236 231 236 239 241 244 247 253 253 250 245 237 237 240 247 254 253 249 246 241 247 255 250 249 256 255 242 233 238 240 225 227 247 256 259 259 256 240 226 225 228 237 240 230 229 237 243 243 243 244
338 336 334 332 330 328 329 329 328 324 318 316 314 308 300 291 280 269 266 262 261 259 254 255 253 254 263 269 270 259 250 252 245 238 238 237 237 240 239 236 238 240 240 246 249 251 251 246 242 237 235 243 249 249 253 256 256 247 241 251 252 247 254 262 250 233 231 236 229 230 247 257 255 263 268 237 222 224 227 237 240 231 231 238 243 243 243 245
337 335 333 332 329 327 326 326 327 326 321 316 312 307 299 293 286 275 268 261 260 256 251 260 263 262 264 266 272 264 254 252 246 240 238 240 242 244 246 245 245 244 241 246 246 245 248 242 239 239 236 242 248 248 253 254 257 254 245 249 256 252 254 265 259 236 224 230 237 238 248 260 257 262 268 233 223 227 230 239 241 235 234 240 244 244 244 246
333 331 330 329 328 327 325 322 321 320 319 316 312 307 296 289 286 280 271 260 259 259 260 263 264 269 268 265 268 262 249 243 245 245 242 243 247 250 254 249 247 248 246 249 247 241 244 242 237 240 244 244 245 246 246 245 246 254 254 252 260 262 259 264 256 235 225 228 237 240 246 258 262 257 246 228 226 231 238 244 243 240 237 240 246 245 245 246
328 327 325 324 324 325 324 322 318 314 312 312 312 307 295 288 285 279 271 262 255 254 265 257 243 260 276 266 261 253 246 245 250 253 248 247 247 250 256 252 247 249 248 247 246 239 237 243 242 243 245 242 243 244 244 245 244 253 261 253 261 268 266 269 255 235 231 232 237 240 242 252 259 255 251 245 240 236 243 250 247 244 241 240 245 247 245 246
323 322 320 318 318 320 321 320 317 313 310 308 309 306 298 295 290 283 272 257 249 252 267 262 241 252 276 273 254 245 255 260 258 255 251 249 245 246 251 250 248 249 246 241 243 241 233 238 245 242 240 238 242 246 247 252 251 253 259 258 264 267 267 277 258 237 237 238 241 242 242 251 256 255 258 258 254 246 244 250 251 247 243 241 243 246 247 248
319 318 316 314 313 314 315 316 314 310 308 305 303 300 297 301 297 289 281 264 256 256 264 266 253 252 266 270 255 256 267 264 256 253 250 248 247 247 246 245 248 250 246 242 245 249 237 238 247 244 240 237 239 245 249 257 259 256 256 258 263 257 258 273 263 249 248 242 246 252 253 258 260 259 261 259 257 255 249 249 253 249 244 244 244 245 248 251
317 315 313 311 309 309 309 310 309 307 306 303 300 293 294 303 296 287 288 278 271 263 259 261 259 256 260 263 261 266 271 264 255 252 247 248 251 249 242 240 246 249 248 244 247 250 245 247 252 247 243 243 247 249 251 257 260 259 257 256 259 255 258 269 267 260 256 247 253 266 268 265 264 265 267 262 257 257 254 251 252 250 247 245 244 246 249 251
316 314 313 310 307 307 305 305 305 303 302 302 301 295 300 309 300 291 289 281 281 274 260 255 257 257 258 259 260 263 265 263 260 250 242 251 257 246 241 245 247 248 248 245 243 246 248 251 252 248 243 246 252 253 255 261 261 260 259 256 256 256 256 261 264 261 255 252 259 270 272 267 268 269 269 266 262 259 254 251 251 251 249 246 243 246 247 248
319 316 313 311 309 307 304 304 301 300 301 301 299 298 306 315 309 300 288 273 276 277 266 255 254 262 262 257 262 263 258 261 265 250 235 248 256 244 242 249 249 250 251 247 244 247 252 252 249 248 245 246 254 258 261 264 264 262 260 257 255 256 256 256 260 263 264 265 266 272 276 271 269 271 270 267 265 261 252 248 251 251 249 245 242 246 248 247
321 319 316 316 314 310 310 307 301 302 303 299 299 303 311 315 312 305 289 276 275 272 275 268 257 266 265 256 270 270 257 258 262 247 234 246 255 252 250 250 250 252 254 253 251 252 254 251 246 248 249 249 254 261 262 260 263 264 260 256 254 257 260 257 259 265 271 273 270 270 274 273 271 272 271 267 265 262 250 245 248 249 247 244 244 247 248 247
320 318 318 318 316 314 315 311 309 313 309 302 310 320 318 314 312 306 294 291 283 269 274 272 258 264 265 261 268 269 268 268 253 232 239 254 259 258 256 256 255 253 254 257 259 259 257 252 247 248 251 252 254 260 260 255 260 264 260 257 254 256 261 260 259 262 266 269 269 266 265 271 277 276 269 266 264 259 249 246 248 248 246 244 245 248 249 248
317 316 316 316 316 316 314 313 320 326 328 323 325 328 322 314 314 308 302 302 288 272 265 261 263 273 273 267 261 259 275 275 251 238 249 263 267 262 255 254 256 255 255 260 264 263 261 258 255 253 255 257 255 258 258 253 257 263 261 260 257 256 260 261 258 258 263 269 272 268 263 269 277 275 269 266 266 259 250 249 249 245 244 245 246 246 247 249
315 315 314 314 314 315 312 314 323 331 334 330 326 323 318 317 315 310 312 302 282 274 262 257 270 280 280 272 262 260 267 266 259 255 254 261 273 270 259 254 254 257 259 261 262 259 256 255 254 253 255 257 257 259 259 253 257 261 259 258 259 258 260 265 262 259 266 273 274 269 262 266 272 273 274 272 269 263 253 249 247 243 243 245 245 245 245 246
314 313 313 313 311 313 315 316 321 326 327 328 326 320 316 317 316 315 319 299 283 278 264 262 274 281 281 276 266 264 264 259 257 258 255 263 272 270 262 255 255 259 259 260 260 256 255 253 249 252 257 258 261 263 258 252 255 258 257 257 261 260 259 264 265 265 271 271 270 267 260 263 269 269 274 275 271 269 260 252 248 245 245 245 244 245 244 242
314 313 313 311 310 315 318 313 315 320 324 329 329 326 325 323 327 336 320 297 291 286 276 274 275 273 272 278 273 263 264 260 253 256 262 270 270 266 264 259 256 262 262 261 259 256 258 255 251 258 262 261 263 261 256 254 253 252 255 259 264 267 265 263 261 265 272 271 268 265 258 260 268 268 266 267 272 277 269 255 247 244 245 246 247 250 245 241
314 313 314 310 307 314 314 311 317 321 326 331 330 332 334 329 339 350 309 302 300 291 296 293 283 276 271 278 276 260 265 272 260 255 263 271 269 261 268 267 261 266 268 262 260 259 261 259 258 259 258 263 268 260 258 263 257 249 253 259 265 271 270 266 264 260 261 266 268 266 262 259 263 268 267 266 272 281 277 256 248 247 246 245 246 250 248 244
315 313 313 306 300 307 308 312 321 326 329 332 333 336 340 338 334 308 298 320 310 286 301 305 292 289 286 291 288 268 268 275 267 258 259 266 269 260 262 267 259 262 267 263 261 264 263 261 260 258 253 256 263 260 260 266 259 249 254 260 265 270 271 266 262 257 256 262 267 268 266 261 261 266 267 267 268 268 269 261 250 248 250 250 250 251 251 248
316 315 315 306 299 305 308 313 321 327 331 333 332 334 342 344 322 302 307 321 311 288 299 307 299 293 290 295 293 279 276 275 267 266 264 263 267 263 258 258 253 252 258 260 260 264 270 268 263 263 257 250 253 256 256 258 253 247 250 254 255 258 264 264 262 261 262 263 267 271 271 268 268 270 267 266 262 257 261 261 252 250 253 255 256 254 252 249
316 316 316 308 305 311 314 315 319 324 330 332 329 327 333 320 300 308 316 315 314 310 311 314 312 303 294 291 286 280 279 274 263 264 269 267 266 267 263 260 257 254 258 261 260 262 270 270 261 262 261 250 250 252 249 251 252 251 250 248 249 249 253 260 261 261 263 267 271 274 271 265 266 271 269 266 263 260 263 262 259 259 258 256 256 253 251 251
315 312 310 306 302 310 316 315 316 320 324 328 326 319 312 298 298 314 316 305 306 312 312 311 307 301 295 291 288 286 277 268 266 267 271 268 263 264 265 263 259 257 259 262 263 264 266 264 259 259 256 248 252 253 249 253 257 258 256 249 249 252 254 259 261 260 265 272 273 268 265 265 265 269 271 269 267 267 267 268 267 265 264 261 256 252 252 252
306 304 299 295 292 304 314 314 315 317 318 323 324 314 299 293 303 311 306 300 303 309 312 310 304 300 297 294 296 297 283 269 271 274 272 269 267 266 264 265 264 259 255 257 262 264 262 261 262 266 261 253 258 258 248 248 253 256 258 255 254 255 256 261 266 267 269 271 270 265 266 273 274 272 271 269 269 269 269 272 271 266 265 262 254 250 254 255
300 297 289 287 291 305 312 314 315 315 315 316 311 305 300 298 303 302 296 301 305 309 312 310 305 302 300 298 295 295 293 283 277 277 274 267 267 269 266 271 276 265 253 253 259 260 261 261 261 267 268 262 266 265 250 244 248 252 257 261 263 263 261 262 265 270 270 268 269 265 263 269 271 269 272 275 276 275 274 273 272 268 267 265 260 255 255 256
300 297 288 282 288 303 310 312 311 311 312 308 298 297 300 298 301 303 302 303 305 309 309 304 301 299 299 300 293 288 289 286 281 282 279 268 267 272 269 267 272 268 258 259 260 259 263 265 262 262 264 264 268 269 260 256 255 254 259 264 264 263 262 262 263 265 264 266 272 269 261 261 261 263 272 278 279 280 280 274 270 271 268 265 267 264 260 262
297 298 288 279 286 303 309 307 306 308 308 303 296 296 297 297 302 309 310 305 303 306 304 299 298 298 297 298 294 290 285 281 281 281 278 273 271 271 268 264 265 266 264 261 259 261 265 268 265 263 264 266 267 267 265 266 264 261 263 266 263 258 256 258 260 262 262 264 270 272 267 263 261 262 267 274 276 276 275 272 271 275 272 265 269 272 270 271
292 291 286 285 295 304 305 301 300 303 301 295 291 294 297 296 298 303 305 303 300 298 298 297 296 294 294 295 293 289 284 280 278 275 272 273 272 272 273 269 265 266 268 265 263 265 267 267 266 267 268 266 263 261 263 267 270 269 268 268 266 262 260 261 264 264 264 263 266 270 269 263 260 260 264 274 278 271 264 264 267 274 278 272 272 276 275 274
292 284 281 289 298 301 303 300 295 295 295 294 292 293 296 294 292 298 301 299 294 291 291 293 293 292 292 293 291 287 284 280 276 272 270 271 273 275 276 274 268 267 268 270 268 267 266 266 266 268 267 263 260 262 266 269 269 268 268 268 266 263 262 263 265 264 261 259 259 262 265 264 262 262 266 271 271 268 266 265 266 272 278 277 275 279 280 277
290 284 281 290 297 299 300 297 290 289 291 296 297 294 294 294 295 299 300 298 294 292 291 290 292 293 292 291 291 288 285 281 276 272 269 270 271 269 270 276 277 272 268 267 267 266 266 266 268 268 266 263 264 265 266 268 268 265 264 265 266 265 261 258 260 262 260 257 256 256 261 266 264 259 260 265 266 269 273 271 269 271 274 277 279 281 284 283
291 288 284 289 299 301 298 293 292 293 290 293 298 297 297 298 298 299 298 295 294 294 293 291 293 293 292 291 290 289 286 281 277 273 270 270 269 265 268 274 275 275 272 268 267 269 269 268 269 270 269 268 269 268 266 265 265 264 262 262 263 264 261 257 257 259 259 257 256 256 259 264 264 260 261 268 269 272 277 278 276 274 275 278 280 281 282 282
292 289 282 287 300 305 297 289 292 294 292 293 295 296 299 299 297 297 296 292 291 293 291 289 290 290 289 288 286 285 284 280 277 274 272 270 266 265 270 272 271 273 272 267 266 268 267 267 269 272 274 274 273 271 268 265 262 261 261 262 263 264 266 265 262 262 262 259 256 255 258 260 262 265 269 270 270 271 275 279 279 277 277 279 280 280 279 278
290 286 283 289 299 301 293 290 293 293 294 296 296 295 297 296 295 297 296 291 290 291 289 288 290 290 288 288 286 283 282 279 276 274 273 271 267 267 270 272 272 272 269 265 265 267 267 266 267 268 268 269 267 265 265 267 266 264 264 266 265 265 267 267 265 265 264 264 261 258 261 264 266 268 270 270 271 272 274 278 279 277 276 277 278 279 278 277
290 286 286 292 296 295 292 295 298 296 295 297 295 294 294 294 295 296 295 292 290 290 289 288 290 290 288 287 285 282 281 279 277 276 275 273 270 269 273 278 278 272 267 265 265 268 270 268 266 264 263 264 265 264 267 270 269 268 269 269 266 265 266 266 266 264 264 268 267 262 263 269 270 268 268 271 274 275 275 277 278 276 276 277 278 279 278 275
290 286 288 292 291 292 294 297 298 296 295 295 293 292 293 293 293 294 292 291 290 290 289 287 288 288 287 287 285 282 281 279 276 276 276 275 273 273 275 279 278 268 265 269 269 270 272 270 267 265 265 266 268 268 269 269 267 267 269 269 267 266 268 269 267 265 265 269 268 265 265 269 270 269 269 271 275 276 275 276 276 276 277 277 278 277 276 275
290 287 291 293 289 290 294 295 295 294 294 294 292 292 293 293 291 290 290 289 290 291 291 287 285 284 285 286 284 283 283 281 278 277 276 276 278 277 274 272 271 268 269 272 271 271 273 271 268 266 267 269 269 270 270 267 266 266 266 266 267 268 269 268 265 265 266 266 266 267 267 267 268 270 271 272 274 274 274 275 275 276 276 277 277 277 275 275
292 289 291 294 292 291 292 293 293 291 291 292 292 291 292 292 291 291 290 288 287 289 292 289 285 285 286 285 285 286 285 282 279 277 278 279 279 278 274 270 268 269 271 270 270 271 273 272 271 270 271 272 271 270 270 269 269 269 267 266 268 269 268 266 266 266 266 266 267 270 271 269 268 270 272 273 274 274 275 276 276 276 276 277 278 277 277 277
293 291 292 293 293 291 291 292 293 291 289 289 289 289 290 289 290 292 291 292 290 288 289 289 289 290 289 286 286 286 283 278 275 277 280 281 279 277 274 271 269 269 270 270 270 270 271 273 275 276 276 274 272 271 270 269 270 270 269 269 270 270 270 269 269 269 269 269 270 272 274 272 270 271 274 274 274 275 277 278 277 277 277 278 278 278 279 279
294 292 292 292 291 291 292 292 292 291 290 289 287 288 289 289 293 294 291 291 292 290 289 291 291 290 288 286 284 283 281 278 277 278 279 277 277 277 275 274 274 272 271 271 271 271 271 273 275 277 276 274 273 272 271 272 272 271 270 270 270 270 270 269 268 267 267 269 271 273 274 273 273 274 275 275 276 277 277 278 279 279 280 280 280 280 280 279
297 293 294 293 291 291 292 291 289 288 290 292 290 289 289 289 294 297 292 289 292 292 293 294 292 289 288 286 284 282 283 283 282 282 280 277 277 278 276 275 275 273 271 271 270 269 271 274 274 274 274 275 274 273 274 277 276 272 268 268 268 268 269 269 269 268 267 267 270 271 271 273 275 276 276 276 277 277 276 277 279 281 282 282 281 281 280 278